Location: Burtsch�tz
(51.0528°N, 12.1764°E)
Time: 14:10:16
(UTC+00:00)

Geosat - Pass Details

Date: 29 October 2020
Orbit: 763 x 766 km, 108.0° (Epoch: 28 November)

Event Time Altitude Azimuth Distance (km) Brightness Sun altitude
Exits shadow 17:52:54 38° 109° (ESE) 1,151 4.4 -19.7°
Maximum altitude 17:53:01 39° 112° (ESE) 1,150 4.4 -19.8°
Drops below altitude 10° 17:57:41 10° 181° (S) 2,299 6.4 -20.5°
Sets 18:00:05 0° 189° (S) 3,221 7.3 -20.9°
